This is the latest recevied weather packets stored in our database for station/object OE-11053. If no packets are shown the sender has not sent any weather packets the latest 10 day(s).
| Time | Temp. | Humidity | Pressure | Rain* | Wind** | Luminosity | Snow |
|---|---|---|---|---|---|---|---|
| 1787727922 | 16.67° C | 90% | 1017.5 hPa | 0 mm | - | 128 W/m² | - |
| 1787727322 | 16.11° C | 91% | 1017.6 hPa | 0 mm | - | 141 W/m² | - |
| 1787726733 | 16.11° C | 92% | 1017.4 hPa | 0 mm | - | 147 W/m² | - |
| 1787726122 | 16.11° C | 93% | 1017.6 hPa | 0 mm | - | 128 W/m² | - |
| 1787725523 | 15.56° C | 94% | 1017.6 hPa | 0 mm | - | 109 W/m² | - |
| 1787724695 | 15.56° C | 94% | 1017.4 hPa | 0 mm | - | 90 W/m² | - |
| 1787724323 | 15.56° C | 95% | 1017.5 hPa | 0 mm | - | 83 W/m² | - |
| 1787723722 | 15° C | 94% | 1017.4 hPa | 0 mm | - | 64 W/m² | - |
| 1787722895 | 14.44° C | 95% | 1017.5 hPa | 0 mm | - | 45 W/m² | - |
| 1787722523 | 14.44° C | 95% | 1017.6 hPa | 0 mm | - | 45 W/m² | - |
| 1787721923 | 14.44° C | 95% | 1017.7 hPa | 0 mm | - | 38 W/m² | - |
| 1787721095 | 13.89° C | 95% | 1017.6 hPa | 0 mm | - | 32 W/m² | - |
| 1787720723 | 13.89° C | 96% | 1017.6 hPa | 0 mm | - | 19 W/m² | - |
| 1787720123 | 13.89° C | 96% | 1017.6 hPa | 0 mm | - | 13 W/m² | - |
| 1787719296 | 13.89° C | 96% | 1017.6 hPa | 0 mm | - | 6 W/m² | - |
| 1787718923 | 13.33° C | 96% | 1017.6 hPa | 0 mm | - | 0 W/m² | - |
| 1787718322 | 13.33° C | 96% | 1017.5 hPa | 0 mm | - | 0 W/m² | - |
| 1787717495 | 13.33° C | 96% | 1017.5 hPa | 0 mm | - | 0 W/m² | - |
| 1787717123 | 13.33° C | 96% | 1017.3 hPa | 0 mm | - | 0 W/m² | - |
| 1787716522 | 13.33° C | 96% | 1017.3 hPa | 0 mm | - | 0 W/m² | - |
| 1787715923 | 13.33° C | 96% | 1017.2 hPa | 0 mm | - | 0 W/m² | - |
| 1787715322 | 13.33° C | 96% | 1017.2 hPa | 0 mm | - | 0 W/m² | - |
| 1787714723 | 13.33° C | 96% | 1017.2 hPa | 0 mm | - | 0 W/m² | - |
| 1787713895 | 13.33° C | 96% | 1017.3 hPa | 0 mm | - | 0 W/m² | - |
| 1787713523 | 13.33° C | 96% | 1017.3 hPa | 0 mm | - | 0 W/m² | - |
* Rain latest hour (hover to see other rain measurements)
** Current wind speed in m/s (hover to see current wind gust speed)